User: anonymous
Location: Darlington Observatory
(36.4817°N, 105.8156°W)
Time: 16:26:39
(UTC-06:00)
Language:

Cosmos 2278 Rocket - Orbit

View from above orbital plane
View from above orbital plane
View from above satellite
View from above satellite

Ground track
Ground track

The orbit data is extracted from the following two-line orbital elements,

1 23088U 94023B   14213.44910726  .00000299  00000-0  18021-3 0  9842
2 23088 071.0019 327.3130 0005285 263.1343 161.1005 14.14569331 46957
Epoch (UTC): 01 August 2014 10:46:42
Eccentricity: 0.0005285
inclination: 71.0019°
perigee height: 840 km
apogee height: 847 km
right ascension of ascending node: 327.3130°
argument of perigee: 263.1343°
revolutions per day: 14.14569331
mean anomaly at epoch: 161.1005°
orbit number at epoch: 4695

The dashed part of the orbit path shows where the satellite is in the earth's shadow,  

DLR